| time (UTC) | temp C | wind direction | speed KPH | gust KPH | rain 1hr cm | rain 24hr cm | rain mn cm | humidity % | barometer mb |
| 20260506035516 | 13 | 338 | 12.9 | 20.9 | 0.00 | 0.00 | 0.00 | 79 | 1008.6 |
| 20260506034537 | 13 | 0 | 12.9 | 17.7 | 0.00 | 0.00 | 0.00 | 79 | 1008.6 |
| 20260506033516 | 13 | 0 | 12.9 | 20.9 | 0.00 | 0.00 | 0.00 | 79 | 1008.4 |
| 20260506032516 | 14 | 0 | 9.7 | 16.1 | 0.00 | 0.00 | 0.00 | 79 | 1008.3 |
| 20260506031516 | 14 | 0 | 14.5 | 20.9 | 0.00 | 0.00 | 0.00 | 79 | 1008.2 |
| 20260506030516 | 14 | 23 | 11.3 | 17.7 | 0.00 | 0.00 | 0.00 | 79 | 1007.8 |
| 20260506025536 | 15 | 0 | 14.5 | 17.7 | 0.00 | 0.00 | 0.00 | 80 | 1007.7 |
| 20260506024516 | 15 | 0 | 12.9 | 20.9 | 0.00 | 0.00 | 0.00 | 80 | 1007.2 |
| 20260506023536 | 15 | 23 | 12.9 | 20.9 | 0.00 | 0.00 | 0.00 | 80 | 1006.7 |
| 20260506022516 | 15 | 0 | 11.3 | 19.3 | 0.00 | 0.00 | 0.00 | 80 | 1006.5 |
| 20260506021516 | 16 | 338 | 9.7 | 14.5 | 0.00 | 0.00 | 0.00 | 80 | 1006.2 |
| 20260506020516 | 16 | 0 | 9.7 | 14.5 | 0.00 | 0.00 | 0.00 | 80 | 1006.2 |
| 20260506015516 | 16 | 315 | 11.3 | 16.1 | 0.00 | 0.00 | 0.00 | 81 | 1006.2 |
| 20260506014516 | 16 | 23 | 6.4 | 17.7 | 0.00 | 0.00 | 0.00 | 81 | 1005.7 |
| 20260506013536 | 16 | 338 | 12.9 | 20.9 | 0.00 | 0.00 | 0.00 | 80 | 1005.9 |
| 20260506012516 | 17 | 315 | 11.3 | 22.5 | 0.00 | 0.00 | 0.00 | 79 | 1005.4 |
| 20260506011516 | 17 | 0 | 14.5 | 19.3 | 0.00 | 0.00 | 0.00 | 79 | 1005.2 |
| 20260506010536 | 17 | 0 | 14.5 | 20.9 | 0.00 | 0.00 | 0.00 | 78 | 1005.0 |
| 20260506005516 | 18 | 0 | 19.3 | 30.6 | 0.00 | 0.00 | 0.00 | 78 | 1004.9 |
| 20260506004516 | 19 | 0 | 11.3 | 19.3 | 0.00 | 0.00 | 0.00 | 78 | 1004.6 |
| 20260506003516 | 20 | 338 | 8.0 | 11.3 | 0.00 | 0.00 | 0.00 | 77 | 1004.3 |
| 20260506002516 | 20 | 338 | 8.0 | 16.1 | 0.00 | 0.00 | 0.00 | 76 | 1004.4 |
| 20260506001515 | 20 | 315 | 11.3 | 32.2 | 0.00 | 0.00 | 0.00 | 76 | 1004.4 |
| 20260506000516 | 20 | 315 | 16.1 | 22.5 | 0.00 | 0.00 | 0.00 | 76 | 1004.8 |
| 20260505235515 | 20 | 338 | 11.3 | 17.7 | 0.00 | 0.00 | 0.00 | 75 | 1003.8 |
| 20260505234516 | 21 | 315 | 17.7 | 24.1 | 0.00 | 0.00 | 0.00 | 74 | 1004.5 |
| 20260505233516 | 21 | 338 | 11.3 | 17.7 | 0.00 | 0.00 | 0.00 | 74 | 1004.3 |
| 20260505232516 | 22 | 338 | 11.3 | 20.9 | 0.00 | 0.00 | 0.00 | 74 | 1004.2 |
| 20260505231515 | 22 | 315 | 19.3 | 29.0 | 0.00 | 0.00 | 0.00 | 73 | 1004.2 |
| 20260505230516 | 23 | 315 | 16.1 | 22.5 | 0.00 | 0.00 | 0.00 | 72 | 1003.8 |
| 20260505225515 | 24 | 315 | 11.3 | 17.7 | 0.00 | 0.00 | 0.00 | 71 | 1003.8 |
| 20260505224516 | 25 | 315 | 20.9 | 25.7 | 0.00 | 0.00 | 0.00 | 69 | 1003.6 |
| 20260505223515 | 25 | 315 | 11.3 | 16.1 | 0.00 | 0.00 | 0.00 | 67 | 1003.4 |
| 20260505222516 | 25 | 315 | 12.9 | 17.7 | 0.00 | 0.00 | 0.00 | 64 | 1003.1 |
| 20260505221515 | 26 | 293 | 14.5 | 22.5 | 0.00 | 0.00 | 0.00 | 60 | 1002.9 |
| 20260505220515 | 26 | 293 | 16.1 | 19.3 | 0.00 | 0.00 | 0.00 | 57 | 1002.9 |
| 20260505215515 | 26 | 270 | 17.7 | 20.9 | 0.00 | 0.00 | 0.00 | 56 | 1002.7 |
| 20260505214516 | 26 | 293 | 14.5 | 20.9 | 0.00 | 0.00 | 0.00 | 55 | 1002.6 |
| 20260505213515 | 27 | 293 | 14.5 | 19.3 | 0.00 | 0.00 | 0.00 | 53 | 1002.9 |
| 20260505212515 | 27 | 293 | 11.3 | 16.1 | 0.00 | 0.00 | 0.00 | 52 | 1003.1 |
| 20260505211515 | 28 | 315 | 19.3 | 32.2 | 0.00 | 0.00 | 0.00 | 52 | 1002.9 |
| 20260505210515 | 29 | 293 | 17.7 | 24.1 | 0.00 | 0.00 | 0.00 | 54 | 1002.9 |
| 20260505205515 | 30 | 0 | 14.5 | 22.5 | 0.00 | 0.00 | 0.00 | 55 | 1003.0 |
| 20260505204515 | 30 | 0 | 14.5 | 20.9 | 0.00 | 0.00 | 0.00 | 55 | 1003.1 |
| 20260505203557 | 29 | 0 | 12.9 | 16.1 | 0.00 | 0.00 | 0.00 | 62 | 1002.9 |
| 20260505202537 | 29 | 0 | 14.5 | 19.3 | 0.00 | 0.00 | 0.00 | 62 | 1003.1 |
| 20260505201515 | 28 | 0 | 16.1 | 19.3 | 0.00 | 0.00 | 0.00 | 63 | 1003.0 |
| 20260505200517 | 28 | 0 | 11.3 | 14.5 | 0.00 | 0.00 | 0.00 | 64 | 1003.0 |
| 20260505195517 | 28 | 0 | 14.5 | 19.3 | 0.00 | 0.00 | 0.00 | 64 | 1003.2 |
| 20260505194537 | 28 | 0 | 12.9 | 22.5 | 0.00 | 0.00 | 0.00 | 65 | 1003.2 |
| 20260505193517 | 28 | 0 | 19.3 | 33.8 | 0.00 | 0.00 | 0.00 | 64 | 1003.4 |
| 20260505192517 | 27 | 0 | 14.5 | 24.1 | 0.00 | 0.00 | 0.00 | 64 | 1003.3 |
| 20260505191517 | 27 | 0 | 11.3 | 25.7 | 0.00 | 0.00 | 0.00 | 64 | 1003.1 |
| 20260505190517 | 28 | 0 | 16.1 | 20.9 | 0.00 | 0.00 | 0.00 | 63 | 1002.9 |
| 20260505185517 | 28 | 0 | 9.7 | 16.1 | 0.00 | 0.00 | 0.00 | 63 | 1002.8 |
| 20260505184517 | 27 | 0 | 17.7 | 24.1 | 0.00 | 0.00 | 0.00 | 64 | 1002.8 |
| 20260505183537 | 27 | 0 | 14.5 | 20.9 | 0.00 | 0.00 | 0.00 | 67 | 1002.9 |
| 20260505182517 | 27 | 0 | 12.9 | 17.7 | 0.00 | 0.00 | 0.00 | 67 | 1003.1 |
| 20260505181517 | 27 | 0 | 12.9 | 19.3 | 0.00 | 0.00 | 0.00 | 68 | 1003.2 |
| 20260505180517 | 26 | 0 | 11.3 | 14.5 | 0.00 | 0.00 | 0.00 | 70 | 1003.1 |
| 20260505175517 | 26 | 0 | 19.3 | 32.2 | 0.00 | 0.00 | 0.00 | 71 | 1003.1 |
| 20260505174517 | 26 | 0 | 8.0 | 12.9 | 0.00 | 0.00 | 0.00 | 72 | 1003.0 |
| 20260505173517 | 26 | 0 | 16.1 | 22.5 | 0.00 | 0.00 | 0.00 | 73 | 1002.8 |
| 20260505172517 | 25 | 0 | 12.9 | 20.9 | 0.00 | 0.00 | 0.00 | 74 | 1002.8 |
| 20260505171517 | 25 | 0 | 14.5 | 29.0 | 0.00 | 0.00 | 0.00 | 74 | 1002.9 |
| 20260505170517 | 25 | 0 | 12.9 | 24.1 | 0.00 | 0.00 | 0.00 | 75 | 1002.5 |
| 20260505165537 | 25 | 0 | 16.1 | 24.1 | 0.00 | 0.00 | 0.00 | 75 | 1002.7 |
| 20260505164517 | 25 | 0 | 14.5 | 20.9 | 0.00 | 0.00 | 0.00 | 75 | 1002.9 |
| 20260505163537 | 25 | 0 | 12.9 | 17.7 | 0.00 | 0.00 | 0.00 | 76 | 1002.8 |
| 20260505162517 | 25 | 0 | 19.3 | 25.7 | 0.00 | 0.00 | 0.00 | 76 | 1002.9 |
| 20260505161520 | 24 | 0 | 16.1 | 22.5 | 0.00 | 0.00 | 0.00 | 76 | 1002.6 |
| 20260505160519 | 25 | 0 | 14.5 | 24.1 | 0.00 | 0.00 | 0.00 | 76 | 1002.4 |
| 20260505152516 | 24 | 0 | 20.9 | 32.2 | 0.00 | 0.00 | 0.00 | 76 | 1002.6 |
| 20260505151527 | 24 | 0 | 20.9 | 37.0 | 0.00 | 0.00 | 0.00 | 77 | 1002.5 |
| 20260505150517 | 24 | 0 | 19.3 | 30.6 | 0.00 | 0.00 | 0.00 | 78 | 1002.6 |
| 20260505140517 | 23 | 0 | 16.1 | 25.7 | 0.00 | 0.00 | 0.00 | 80 | 1002.0 |
| 20260505124516 | 22 | 0 | 12.9 | 22.5 | 0.00 | 0.00 | 0.00 | 82 | 1001.9 |
| 20260505123516 | 22 | 0 | 19.3 | 30.6 | 0.00 | 0.00 | 0.00 | 82 | 1001.9 |
| 20260505122516 | 22 | 0 | 17.7 | 29.0 | 0.00 | 0.00 | 0.00 | 82 | 1001.9 |
| 20260505121516 | 22 | 0 | 11.3 | 16.1 | 0.00 | 0.00 | 0.00 | 83 | 1001.7 |
| 20260505120516 | 22 | 0 | 11.3 | 20.9 | 0.00 | 0.00 | 0.00 | 82 | 1001.5 |
| 20260505115536 | 22 | 0 | 22.5 | 32.2 | 0.00 | 0.00 | 0.00 | 82 | 1001.3 |
| 20260505114516 | 22 | 0 | 20.9 | 29.0 | 0.00 | 0.00 | 0.00 | 82 | 1001.5 |
| 20260505113516 | 22 | 0 | 14.5 | 22.5 | 0.00 | 0.00 | 0.00 | 82 | 1001.5 |
| 20260505112516 | 22 | 0 | 12.9 | 19.3 | 0.00 | 0.00 | 0.00 | 81 | 1001.5 |
| 20260505111516 | 22 | 0 | 17.7 | 24.1 | 0.00 | 0.00 | 0.00 | 82 | 1001.6 |
| 20260505110516 | 22 | 0 | 19.3 | 30.6 | 0.00 | 0.00 | 0.00 | 82 | 1001.4 |
| 20260505101516 | 21 | 0 | 17.7 | 29.0 | 0.00 | 0.00 | 0.00 | 82 | 1001.5 |
| 20260505100536 | 21 | 0 | 14.5 | 20.9 | 0.00 | 0.00 | 0.00 | 82 | 1001.3 |
| 20260505095516 | 21 | 0 | 16.1 | 22.5 | 0.00 | 0.00 | 0.00 | 82 | 1001.3 |
| 20260505094516 | 21 | 0 | 12.9 | 17.7 | 0.00 | 0.00 | 0.00 | 82 | 1001.4 |
| 20260505093516 | 22 | 0 | 14.5 | 20.9 | 0.00 | 0.00 | 0.00 | 81 | 1001.5 |
| 20260505092516 | 22 | 0 | 14.5 | 22.5 | 0.00 | 0.00 | 0.00 | 81 | 1001.7 |
| 20260505091516 | 22 | 0 | 12.9 | 24.1 | 0.00 | 0.00 | 0.00 | 81 | 1001.8 |
| 20260505090515 | 22 | 0 | 12.9 | 19.3 | 0.00 | 0.00 | 0.00 | 80 | 1001.7 |
| 20260505085515 | 22 | 0 | 22.5 | 33.8 | 0.00 | 0.00 | 0.00 | 80 | 1001.7 |
| 20260505084516 | 22 | 0 | 14.5 | 22.5 | 0.00 | 0.00 | 0.00 | 80 | 1001.6 |
| 20260505083515 | 22 | 0 | 11.3 | 19.3 | 0.00 | 0.00 | 0.00 | 79 | 1001.6 |
| 20260505082515 | 22 | 0 | 14.5 | 19.3 | 0.00 | 0.00 | 0.00 | 79 | 1001.7 |
| 20260505081515 | 22 | 0 | 16.1 | 29.0 | 0.00 | 0.00 | 0.00 | 78 | 1001.8 |
| 20260505080515 | 22 | 0 | 19.3 | 30.6 | 0.00 | 0.00 | 0.00 | 78 | 1001.9 |
| 20260505075515 | 22 | 0 | 14.5 | 29.0 | 0.00 | 0.00 | 0.00 | 77 | 1002.0 |
| 20260505074515 | 22 | 0 | 11.3 | 19.3 | 0.00 | 0.00 | 0.00 | 77 | 1002.2 |
| 20260505073515 | 22 | 0 | 22.5 | 30.6 | 0.00 | 0.00 | 0.00 | 77 | 1002.2 |
| 20260505072515 | 22 | 0 | 16.1 | 22.5 | 0.00 | 0.00 | 0.00 | 76 | 1002.4 |
| 20260505071515 | 22 | 0 | 16.1 | 33.8 | 0.00 | 0.00 | 0.00 | 76 | 1002.6 |
| 20260505070616 | 22 | 0 | 20.9 | 32.2 | 0.00 | 0.00 | 0.00 | 76 | 1002.7 |
| 20260505065516 | 22 | 0 | 19.3 | 38.6 | 0.00 | 0.00 | 0.00 | 75 | 1002.8 |
| 20260505064515 | 22 | 0 | 12.9 | 17.7 | 0.00 | 0.00 | 0.00 | 75 | 1002.9 |
| 20260505063515 | 22 | 0 | 12.9 | 20.9 | 0.00 | 0.00 | 0.00 | 75 | 1003.0 |
| 20260505062515 | 22 | 0 | 19.3 | 32.2 | 0.00 | 0.00 | 0.00 | 74 | 1003.0 |
| 20260505061517 | 22 | 0 | 11.3 | 24.1 | 0.00 | 0.00 | 0.00 | 74 | 1003.1 |
| 20260505060515 | 22 | 0 | 11.3 | 22.5 | 0.00 | 0.00 | 0.00 | 74 | 1003.1 |
| 20260505055517 | 22 | 0 | 11.3 | 16.1 | 0.00 | 0.00 | 0.00 | 74 | 1003.1 |
| 20260505054517 | 22 | 0 | 11.3 | 17.7 | 0.00 | 0.00 | 0.00 | 74 | 1003.2 |
| 20260505053517 | 22 | 0 | 12.9 | 20.9 | 0.00 | 0.00 | 0.00 | 74 | 1003.3 |
| 20260505052517 | 22 | 0 | 11.3 | 17.7 | 0.00 | 0.00 | 0.00 | 74 | 1003.4 |
| 20260505051517 | 22 | 0 | 12.9 | 16.1 | 0.00 | 0.00 | 0.00 | 74 | 1003.6 |
| 20260505050517 | 22 | 0 | 12.9 | 19.3 | 0.00 | 0.00 | 0.00 | 74 | 1003.5 |
| 20260505041517 | 22 | 0 | 14.5 | 22.5 | 0.00 | 0.00 | 0.00 | 73 | 1003.8 |
| 20260505040517 | 22 | 0 | 16.1 | 30.6 | 0.00 | 0.00 | 0.00 | 73 | 1003.8 |